Tracking 29040 objects as of 15-Jun-2024
HD Live streaming from Space Station
objects crossing your sky now

XSAT

Track XSAT now!
10-day predictions
XSAT is classified as:


NORAD ID: 37389
Int'l Code: 2011-015C
Perigee: 806.8 km
Apogee: 826.4 km
Inclination: 98.3 °
Period: 101.1 minutes
Semi major axis: 7187 km
RCS: 0.4978 m2 (medium)
Launch date: April 20, 2011
Source: Singapore (SING)
Launch site: SRIHARIKOTA (SRI)

X-SAT, Singapore's first national satellite, has a multi-spectral camera and will demonstrate space-based remote sensing and image processing technologies.
Your satellite tracking list
Your tracking list is empty




NASA's NSSDC Master Catalog

Two Line Element Set (TLE):
1 37389U 11015C   24166.95063388  .00000211  00000-0  10804-3 0  9999
2 37389  98.2925 171.0585 0013592 338.9861  21.0759 14.24709097683398
Source of the keplerian elements: AFSPC